Time,TemperatureF,DewpointF,PressureIn,WindDirection,WindDirectionDegrees,WindSpeedMPH,WindSpeedGustMPH,Humidity,HourlyPrecipIn,Conditions,Clouds,dailyrainin,SoftwareType,DateUTC
2013-04-30 00:14:00,65.4,42.0,29.64,WSW,253,16.0,24.0,42,0.00,,,0.00,weatherlink.com 1.10,2013-04-30 07:14:00,
2013-04-30 00:29:00,64.8,42.0,29.64,West,259,16.0,25.0,44,0.00,,,0.00,weatherlink.com 1.10,2013-04-30 07:29:00,
2013-04-30 00:44:00,64.6,41.0,29.64,West,264,13.0,28.0,43,0.00,,,0.00,weatherlink.com 1.10,2013-04-30 07:44:00,
2013-04-30 00:59:00,64.3,39.0,29.64,West,274,19.0,24.0,39,0.00,,,0.00,weatherlink.com 1.10,2013-04-30 07:59:00,
2013-04-30 01:14:00,64.4,39.0,29.64,West,264,14.0,23.0,40,0.00,,,0.00,weatherlink.com 1.10,2013-04-30 08:14:00,
2013-04-30 01:29:00,65.2,39.0,29.63,West,274,13.0,24.0,38,0.00,,,0.00,weatherlink.com 1.10,2013-04-30 08:29:00,
2013-04-30 01:44:00,64.7,39.0,29.63,West,278,18.0,24.0,39,0.00,,,0.00,weatherlink.com 1.10,2013-04-30 08:44:00,
2013-04-30 01:59:00,63.7,39.0,29.62,WSW,247,18.0,23.0,40,0.00,,,0.00,weatherlink.com 1.10,2013-04-30 08:59:00,
2013-04-30 02:14:00,64.0,40.0,29.62,West,269,8.0,22.0,42,0.00,,,0.00,weatherlink.com 1.10,2013-04-30 09:14:00,
2013-04-30 02:29:00,63.3,40.0,29.61,West,269,15.0,24.0,43,0.00,,,0.00,weatherlink.com 1.10,2013-04-30 09:29:00,
2013-04-30 02:44:00,63.0,41.0,29.61,WNW,283,17.0,25.0,45,0.00,,,0.00,weatherlink.com 1.10,2013-04-30 09:44:00,
2013-04-30 02:59:00,63.1,41.0,29.61,West,269,21.0,28.0,44,0.00,,,0.00,weatherlink.com 1.10,2013-04-30 09:59:00,
2013-04-30 03:14:00,61.8,42.0,29.61,SW,216,13.0,25.0,48,0.00,,,0.00,weatherlink.com 1.10,2013-04-30 10:14:00,
2013-04-30 03:29:00,62.4,39.0,29.61,West,268,18.0,25.0,43,0.00,,,0.00,weatherlink.com 1.10,2013-04-30 10:29:00,
2013-04-30 03:44:00,62.7,40.0,29.61,WNW,288,20.0,24.0,43,0.00,,,0.00,weatherlink.com 1.10,2013-04-30 10:44:00,
2013-04-30 03:59:00,62.2,39.0,29.61,West,261,12.0,23.0,43,0.00,,,0.00,weatherlink.com 1.10,2013-04-30 10:59:00,
2013-04-30 04:14:00,61.6,40.0,29.61,West,269,17.0,26.0,45,0.00,,,0.00,weatherlink.com 1.10,2013-04-30 11:14:00,
2013-04-30 04:29:00,61.2,40.0,29.61,West,271,19.0,25.0,45,0.00,,,0.00,weatherlink.com 1.10,2013-04-30 11:29:00,
2013-04-30 04:44:00,61.1,38.0,29.61,West,277,15.0,25.0,43,0.00,,,0.00,weatherlink.com 1.10,2013-04-30 11:44:00,
2013-04-30 04:59:00,61.0,39.0,29.61,WSW,255,14.0,23.0,44,0.00,,,0.00,weatherlink.com 1.10,2013-04-30 11:59:00,
2013-04-30 05:14:00,60.9,36.0,29.61,West,268,11.0,25.0,40,0.00,,,0.00,weatherlink.com 1.10,2013-04-30 12:14:00,
2013-04-30 05:29:00,62.1,37.0,29.61,WSW,253,16.0,23.0,39,0.00,,,0.00,weatherlink.com 1.10,2013-04-30 12:29:00,
2013-04-30 05:44:00,62.8,35.0,29.60,West,274,13.0,25.0,36,0.00,,,0.00,weatherlink.com 1.10,2013-04-30 12:44:00,
2013-04-30 05:59:00,63.0,36.0,29.60,SW,221,16.0,23.0,37,0.00,,,0.00,weatherlink.com 1.10,2013-04-30 12:59:00,
2013-04-30 06:14:00,63.3,36.0,29.61,WSW,245,17.0,27.0,36,0.00,,,0.00,weatherlink.com 1.10,2013-04-30 13:14:00,
2013-04-30 06:29:00,63.7,35.0,29.61,West,266,14.0,24.0,35,0.00,,,0.00,weatherlink.com 1.10,2013-04-30 13:29:00,
2013-04-30 06:45:00,64.4,35.0,29.61,WSW,253,16.0,25.0,34,0.00,,,0.00,weatherlink.com 1.10,2013-04-30 13:45:00,
2013-04-30 06:59:00,64.3,34.0,29.61,West,273,15.0,23.0,33,0.00,,,0.00,weatherlink.com 1.10,2013-04-30 13:59:00,
2013-04-30 07:14:00,64.1,34.0,29.62,WSW,244,13.0,23.0,33,0.00,,,0.00,weatherlink.com 1.10,2013-04-30 14:14:00,
2013-04-30 07:29:00,65.1,34.0,29.62,SW,230,14.0,28.0,32,0.00,,,0.00,weatherlink.com 1.10,2013-04-30 14:29:00,
2013-04-30 07:44:00,65.0,34.0,29.62,West,262,16.0,25.0,32,0.00,,,0.00,weatherlink.com 1.10,2013-04-30 14:44:00,
2013-04-30 08:00:00,65.4,35.0,29.62,West,277,18.0,29.0,32,0.00,,,0.00,weatherlink.com 1.10,2013-04-30 15:00:00,
2013-04-30 08:15:00,65.0,34.0,29.62,WSW,258,17.0,27.0,32,0.00,,,0.00,weatherlink.com 1.10,2013-04-30 15:15:00,
2013-04-30 08:30:00,64.4,35.0,29.63,WNW,283,20.0,26.0,34,0.00,,,0.00,weatherlink.com 1.10,2013-04-30 15:30:00,
2013-04-30 08:45:00,64.4,35.0,29.63,West,266,17.0,27.0,34,0.00,,,0.00,weatherlink.com 1.10,2013-04-30 15:45:00,
2013-04-30 09:00:00,65.6,35.0,29.62,WSW,245,16.0,25.0,32,0.00,,,0.00,weatherlink.com 1.10,2013-04-30 16:00:00,
2013-04-30 09:15:00,66.4,35.0,29.63,West,269,15.0,22.0,31,0.00,,,0.00,weatherlink.com 1.10,2013-04-30 16:15:00,
2013-04-30 09:30:00,66.0,34.0,29.63,West,266,18.0,24.0,31,0.00,,,0.00,weatherlink.com 1.10,2013-04-30 16:30:00,
2013-04-30 09:45:00,66.4,37.0,29.63,NW,314,13.0,22.0,34,0.00,,,0.00,weatherlink.com 1.10,2013-04-30 16:45:00,
2013-04-30 10:00:00,67.6,36.0,29.64,West,271,9.0,21.0,31,0.00,,,0.00,weatherlink.com 1.10,2013-04-30 17:00:00,
2013-04-30 10:15:00,68.9,36.0,29.63,West,260,12.0,20.0,30,0.00,,,0.00,weatherlink.com 1.10,2013-04-30 17:15:00,
2013-04-30 10:30:00,68.8,36.0,29.64,West,276,15.0,26.0,30,0.00,,,0.00,weatherlink.com 1.10,2013-04-30 17:30:00,
2013-04-30 10:45:00,68.8,38.0,29.64,West,266,16.0,26.0,33,0.00,,,0.00,weatherlink.com 1.10,2013-04-30 17:45:00,
2013-04-30 11:00:00,70.3,38.0,29.64,West,268,10.0,20.0,31,0.00,,,0.00,weatherlink.com 1.10,2013-04-30 18:00:00,
2013-04-30 11:15:00,70.8,39.0,29.65,West,273,12.0,23.0,31,0.00,,,0.00,weatherlink.com 1.10,2013-04-30 18:15:00,
2013-04-30 11:30:00,70.4,39.0,29.65,WNW,291,19.0,25.0,32,0.00,,,0.00,weatherlink.com 1.10,2013-04-30 18:30:00,
2013-04-30 11:45:00,70.5,41.0,29.65,WNW,282,11.0,22.0,34,0.00,,,0.00,weatherlink.com 1.10,2013-04-30 18:45:00,
2013-04-30 12:00:00,71.4,40.0,29.64,WSW,250,11.0,19.0,32,0.00,,,0.00,weatherlink.com 1.10,2013-04-30 19:00:00,
2013-04-30 12:15:00,71.8,40.0,29.64,WSW,257,15.0,20.0,32,0.00,,,0.00,weatherlink.com 1.10,2013-04-30 19:15:00,
2013-04-30 12:30:00,72.2,41.0,29.64,WSW,246,13.0,21.0,32,0.00,,,0.00,weatherlink.com 1.10,2013-04-30 19:30:00,
2013-04-30 12:45:00,72.3,41.0,29.64,West,274,12.0,20.0,32,0.00,,,0.00,weatherlink.com 1.10,2013-04-30 19:45:00,
2013-04-30 13:00:00,72.6,40.0,29.65,West,268,10.0,18.0,31,0.00,,,0.00,weatherlink.com 1.10,2013-04-30 20:00:00,
2013-04-30 13:15:00,72.2,41.0,29.64,West,260,15.0,24.0,32,0.00,,,0.00,weatherlink.com 1.10,2013-04-30 20:15:00,
2013-04-30 13:30:00,72.9,41.0,29.64,West,262,13.0,22.0,32,0.00,,,0.00,weatherlink.com 1.10,2013-04-30 20:30:00,
2013-04-30 13:45:00,72.5,42.0,29.64,West,269,14.0,22.0,34,0.00,,,0.00,weatherlink.com 1.10,2013-04-30 20:45:00,
2013-04-30 14:00:00,72.5,44.0,29.64,WNW,284,13.0,23.0,36,0.00,,,0.00,weatherlink.com 1.10,2013-04-30 21:00:00,
2013-04-30 14:15:00,71.9,44.0,29.63,West,261,19.0,23.0,37,0.00,,,0.00,weatherlink.com 1.10,2013-04-30 21:15:00,
2013-04-30 14:30:00,71.1,45.0,29.64,West,269,12.0,23.0,40,0.00,,,0.00,weatherlink.com 1.10,2013-04-30 21:30:00,
2013-04-30 14:45:00,70.5,46.0,29.63,West,266,11.0,25.0,41,0.00,,,0.00,weatherlink.com 1.10,2013-04-30 21:45:00,
2013-04-30 15:00:00,69.7,45.0,29.64,West,260,8.0,23.0,42,0.00,,,0.00,weatherlink.com 1.10,2013-04-30 22:00:00,
2013-04-30 15:15:00,69.0,45.0,29.62,West,262,12.0,23.0,43,0.00,,,0.00,weatherlink.com 1.10,2013-04-30 22:15:00,
2013-04-30 15:30:00,68.6,46.0,29.62,West,272,21.0,24.0,45,0.00,,,0.00,weatherlink.com 1.10,2013-04-30 22:30:00,
2013-04-30 15:45:00,68.7,47.0,29.61,WNW,290,9.0,21.0,46,0.00,,,0.00,weatherlink.com 1.10,2013-04-30 22:45:00,
2013-04-30 16:00:00,68.2,47.0,29.62,WSW,257,23.0,26.0,47,0.00,,,0.00,weatherlink.com 1.10,2013-04-30 23:00:00,
2013-04-30 16:15:00,66.7,47.0,29.62,West,264,22.0,28.0,50,0.00,,,0.00,weatherlink.com 1.10,2013-04-30 23:15:00,
2013-04-30 16:30:00,66.1,47.0,29.62,West,267,17.0,28.0,51,0.00,,,0.00,weatherlink.com 1.10,2013-04-30 23:30:00,
2013-04-30 16:45:00,65.5,47.0,29.63,West,261,19.0,27.0,52,0.00,,,0.00,weatherlink.com 1.10,2013-04-30 23:45:00,
2013-04-30 17:00:00,65.4,48.0,29.63,West,264,23.0,25.0,53,0.00,,,0.00,weatherlink.com 1.10,2013-05-01 00:00:00,
2013-04-30 17:15:00,64.8,47.0,29.63,WSW,240,15.0,25.0,53,0.00,,,0.00,weatherlink.com 1.10,2013-05-01 00:15:00,
2013-04-30 17:30:00,64.3,47.0,29.64,WSW,254,18.0,25.0,54,0.00,,,0.00,weatherlink.com 1.10,2013-05-01 00:30:00,
2013-04-30 17:45:00,63.2,47.0,29.64,WNW,298,18.0,25.0,56,0.00,,,0.00,weatherlink.com 1.10,2013-05-01 00:45:00,
2013-04-30 18:00:00,63.1,47.0,29.64,WNW,284,14.0,22.0,56,0.00,,,0.00,weatherlink.com 1.10,2013-05-01 01:00:00,
2013-04-30 18:15:00,62.5,46.0,29.64,West,266,15.0,22.0,55,0.00,,,0.00,weatherlink.com 1.10,2013-05-01 01:15:00,
2013-04-30 18:30:00,61.8,45.0,29.64,West,269,14.0,24.0,54,0.00,,,0.00,weatherlink.com 1.10,2013-05-01 01:30:00,
2013-04-30 18:46:00,60.5,45.0,29.64,West,276,22.0,25.0,56,0.00,,,0.00,weatherlink.com 1.10,2013-05-01 01:46:00,
2013-04-30 19:00:00,59.0,45.0,29.65,WSW,246,19.0,22.0,61,0.00,,,0.00,weatherlink.com 1.10,2013-05-01 02:00:00,
2013-04-30 19:15:00,57.5,46.0,29.65,West,269,19.0,24.0,65,0.00,,,0.00,weatherlink.com 1.10,2013-05-01 02:15:00,
2013-04-30 19:30:00,56.8,45.0,29.65,West,259,25.0,26.0,66,0.00,,,0.00,weatherlink.com 1.10,2013-05-01 02:30:00,
2013-04-30 19:46:00,56.3,45.0,29.66,West,264,14.0,25.0,67,0.00,,,0.00,weatherlink.com 1.10,2013-05-01 02:46:00,
2013-04-30 20:01:00,55.7,47.0,29.66,West,265,10.0,24.0,72,0.00,,,0.00,weatherlink.com 1.10,2013-05-01 03:01:00,
2013-04-30 20:16:00,54.8,47.0,29.67,West,263,14.0,32.0,75,0.00,,,0.00,weatherlink.com 1.10,2013-05-01 03:16:00,
2013-04-30 20:31:00,54.9,46.0,29.67,WSW,240,20.0,27.0,73,0.00,,,0.00,weatherlink.com 1.10,2013-05-01 03:31:00,
2013-04-30 20:46:00,53.5,47.0,29.68,West,261,22.0,23.0,79,0.00,,,0.00,weatherlink.com 1.10,2013-05-01 03:46:00,
2013-04-30 21:01:00,52.7,48.0,29.68,WSW,257,17.0,24.0,83,0.00,,,0.00,weatherlink.com 1.10,2013-05-01 04:01:00,
2013-04-30 21:16:00,54.7,45.0,29.68,WSW,257,18.0,25.0,70,0.00,,,0.00,weatherlink.com 1.10,2013-05-01 04:16:00,
2013-04-30 21:31:00,52.6,47.0,29.68,WSW,252,17.0,28.0,82,0.00,,,0.00,weatherlink.com 1.10,2013-05-01 04:31:00,
2013-04-30 21:47:00,52.8,47.0,29.69,West,262,16.0,27.0,80,0.00,,,0.00,weatherlink.com 1.10,2013-05-01 04:47:00,
2013-04-30 22:01:00,56.2,44.0,29.69,WSW,252,16.0,28.0,64,0.00,,,0.00,weatherlink.com 1.10,2013-05-01 05:01:00,
2013-04-30 22:16:00,58.0,41.0,29.70,West,266,27.0,27.0,54,0.00,,,0.00,weatherlink.com 1.10,2013-05-01 05:16:00,
2013-04-30 22:31:00,58.0,42.0,29.70,WNW,298,17.0,24.0,56,0.00,,,0.00,weatherlink.com 1.10,2013-05-01 05:31:00,
2013-04-30 22:46:00,58.2,42.0,29.70,WNW,296,18.0,30.0,56,0.00,,,0.00,weatherlink.com 1.10,2013-05-01 05:46:00,
2013-04-30 23:01:00,56.1,44.0,29.71,WSW,241,15.0,23.0,64,0.00,,,0.00,weatherlink.com 1.10,2013-05-01 06:01:00,
2013-04-30 23:16:00,57.3,43.0,29.71,WSW,251,17.0,30.0,60,0.00,,,0.00,weatherlink.com 1.10,2013-05-01 06:16:00,
2013-04-30 23:31:00,59.0,42.0,29.71,WSW,255,12.0,28.0,54,0.00,,,0.00,weatherlink.com 1.10,2013-05-01 06:31:00,
2013-04-30 23:46:00,58.3,41.0,29.71,WNW,285,28.0,29.0,53,0.00,,,0.00,weatherlink.com 1.10,2013-05-01 06:46:00,